Wetbulb
61.09 59.47 60.65 59.67 51.10 50.97 47.06 48.94 53.70 52.15 52.48 55.36 57.11 57.17 57.10 58.26 55.55 52.56 66.21 67.48 69.62 69.72 70.40 71.07 71.06 70.91 70.19 70.16 70.28 70.19 69.84 69.84 69.88 70.14 70.27 70.34 70.77 69.99 69.55 69.29 69.66 68.29 67.74 67.77 67.13 66.81 66.39 65.72 65.21
58.81 58.21 60.26 56.22 49.10 44.85 47.14 51.02 51.34 53.21 56.10 58.07 58.08 58.18 57.41 56.82 60.05 62.21 64.61 68.12 69.86 70.00 70.63 70.38 69.99 70.67 70.20 70.25 70.14 70.04 69.99 69.95 69.56 69.62 70.03 70.00 69.95 69.47 69.09 68.82 69.24 68.19 67.25 67.54 67.04 66.38 66.17 65.39 65.03
57.48 57.10 56.46 52.39 48.60 45.24 45.99 50.06 53.54 55.61 56.06 56.43 56.42 59.11 58.27 57.39 61.03 63.01 67.07 69.09 69.83 69.90 70.49 69.85 69.96 70.44 69.99 69.61 70.34 70.13 70.18 70.03 69.98 70.17 69.24 69.14 68.56 68.09 67.92 68.08 67.61 66.84 66.51 66.36 66.64 66.37 65.86 64.99 64.47
57.84 57.83 54.35 48.90 44.85 47.35 47.20 51.19 54.25 55.18 54.31 56.54 57.89 55.59 60.55 63.36 62.11 65.19 68.13 69.21 68.75 69.36 70.21 69.39 70.11 70.25 69.79 70.14 70.76 70.06 69.88 69.03 69.33 70.26 69.25 68.88 68.47 67.80 66.86 66.34 66.35 65.88 66.11 65.77 65.99 66.05 65.35 64.58 63.86
58.53 56.63 49.47 46.62 45.83 47.09 48.07 51.02 55.36 54.44 54.25 56.44 57.00 55.24 57.55 62.68 65.93 66.98 68.20 68.75 68.26 68.96 69.97 69.75 69.66 69.89 70.07 70.26 70.33 70.51 70.10 69.06 69.18 69.22 68.88 68.01 67.44 67.01 66.76 66.35 65.91 65.88 65.50 65.42 65.77 65.49 64.70 64.08 63.55
54.74 54.20 46.85 44.72 45.66 46.92 50.63 53.73 55.45 53.62 54.46 56.34 56.05 56.79 58.52 64.09 64.17 66.33 68.01 68.19 68.91 68.99 69.77 69.68 67.15 68.29 68.95 69.40 69.95 70.08 69.69 69.27 69.22 69.28 68.85 68.10 67.34 66.88 66.34 66.16 65.98 65.66 65.27 65.18 65.38 64.65 64.13 63.75 63.31
53.18 51.47 47.26 46.11 45.62 46.59 50.41 53.88 53.79 53.33 53.98 54.76 59.18 55.37 58.96 62.09 64.88 66.98 67.60 68.05 68.41 68.42 69.30 69.94 68.91 67.66 66.37 67.20 67.71 68.53 69.10 69.00 69.12 69.03 68.96 68.29 67.85 67.26 66.73 66.39 65.64 65.39 64.91 64.49 64.35 63.93 63.70 63.31 62.76
53.07 52.90 45.83 46.83 46.11 46.18 51.57 51.96 51.17 53.53 52.94 59.14 60.32 54.57 56.57 61.22 64.91 65.90 66.20 66.26 65.72 67.52 68.66 69.50 69.33 68.32 67.74 67.90 64.58 65.49 66.49 66.33 66.45 66.05 65.20 64.77 65.17 65.35 65.11 64.72 65.77 65.07 64.44 63.67 63.43 63.25 62.79 62.43 62.00
52.24 47.80 45.94 46.48 45.75 47.39 51.52 50.81 51.11 54.61 55.91 57.04 58.60 57.85 61.45 63.81 64.57 63.96 63.16 62.70 63.40 65.61 67.37 68.59 68.64 68.12 67.34 67.31 65.25 63.44 63.15 63.26 62.88 62.79 61.84 63.66 65.99 65.44 64.36 62.93 64.64 64.61 63.99 63.66 63.26 62.45 61.50 60.64 60.65
52.60 48.67 48.19 48.63 48.54 47.72 48.96 50.83 51.08 53.13 54.45 55.15 57.09 59.73 63.09 63.27 62.90 61.62 61.52 60.71 61.29 62.38 65.15 66.71 68.39 67.71 66.69 66.15 67.08 66.63 64.25 64.91 65.69 65.95 65.82 65.76 65.58 64.76 63.26 60.25 60.23 61.00 62.31 62.86 61.98 61.00 59.77 61.88 63.35
50.75 49.31 49.73 47.54 49.07 48.64 47.82 48.45 52.20 51.94 51.77 54.35 55.35 58.36 59.98 61.46 62.06 61.19 61.46 62.01 62.78 62.70 63.77 65.48 67.61 67.64 66.36 65.56 66.18 66.11 65.18 64.15 64.86 65.39 65.29 64.87 64.64 64.37 64.05 63.55 63.51 63.01 59.01 62.24 62.61 63.24 63.06 62.54 62.81
47.92 50.07 50.59 48.30 47.90 48.15 47.69 48.42 49.53 52.34 53.00 54.14 58.00 60.73 59.77 60.11 60.53 61.75 60.97 62.04 62.34 61.87 62.72 64.50 67.14 67.07 66.41 65.53 64.86 64.82 64.14 63.96 63.00 63.57 63.97 64.00 63.63 63.44 63.43 63.49 63.53 64.23 64.57 63.75 64.12 63.89 63.27 62.87 62.53
48.66 47.67 48.52 47.34 47.88 48.06 47.74 47.82 48.82 50.61 52.95 54.44 59.28 60.66 59.83 60.21 61.81 62.93 62.71 63.34 62.43 61.87 62.54 63.29 64.84 66.95 66.07 64.79 64.31 63.64 63.14 63.16 63.24 63.64 63.92 64.53 63.77 63.01 63.26 63.53 64.44 64.76 64.70 64.44 64.41 64.24 63.78 63.51 62.82
50.22 49.49 48.01 48.18 48.57 48.21 46.70 47.40 47.40 50.99 54.54 55.43 58.68 59.54 59.99 60.51 61.87 61.13 62.71 62.02 60.82 61.45 63.07 63.25 63.31 66.34 65.95 64.81 63.88 63.42 63.03 63.31 63.82 64.36 64.10 63.72 64.00 63.78 64.22 64.18 64.34 64.73 64.94 64.79 64.46 63.89 63.51 63.19 62.94
48.06 47.58 49.48 47.11 45.88 46.68 47.43 45.66 45.61 50.60 54.40 54.94 57.40 58.96 59.45 61.01 61.34 60.52 62.77 62.22 61.15 61.25 62.05 63.43 63.98 64.64 65.53 64.98 64.42 63.93 63.57 63.12 64.04 64.30 64.32 63.93 63.60 63.21 63.73 64.27 64.19 64.64 64.75 63.98 64.21 63.78 63.17 62.68 62.62
45.87 47.26 43.27 50.11 45.47 44.54 48.41 44.23 49.09 50.31 53.65 53.67 56.28 58.48 58.45 59.34 59.95 61.53 62.99 63.54 63.84 62.45 60.94 62.11 63.31 64.58 65.08 65.07 64.87 64.07 64.14 64.03 64.09 64.63 64.96 64.32 62.48 62.47 63.47 64.27 64.19 64.56 64.25 63.91 63.68 62.92 60.65 62.47 62.57
44.84 41.11 43.65 46.73 46.35 45.90 46.13 45.51 46.92 48.30 52.33 53.11 55.55 57.09 58.37 59.28 59.06 61.35 63.55 64.16 64.49 64.11 61.74 61.41 62.08 62.64 64.11 64.54 64.18 64.11 63.96 64.93 65.67 66.00 65.26 63.90 62.20 61.94 61.96 62.16 62.52 61.25 62.69 62.66 61.60 60.43 60.07 60.96 60.99
39.21 41.75 43.25 44.86 44.84 43.37 44.05 43.83 48.09 46.33 49.49 51.87 54.37 56.37 57.26 58.69 59.38 62.16 63.27 64.41 65.04 65.00 63.55 62.02 62.29 62.45 63.01 63.48 63.64 63.99 64.20 64.88 65.99 65.66 64.03 62.99 62.21 61.93 61.71 61.62 61.63 60.86 60.88 61.11 60.17 59.77 60.54 60.94 60.85
45.17 45.04 44.67 44.79 42.83 42.73 44.45 44.78 46.76 48.54 46.15 49.56 52.32 54.74 56.32 57.49 60.24 62.17 62.96 64.09 64.54 65.07 64.27 62.68 61.65 62.55 62.85 63.14 62.89 63.05 63.10 63.98 64.54 64.68 64.13 63.22 62.86 62.60 62.14 62.31 62.14 62.61 61.79 61.83 61.17 60.72 60.20 61.03 60.54
45.93 43.95 45.15 47.43 44.90 43.11 44.48 43.01 46.11 47.40 45.91 47.17 50.07 52.97 55.03 56.88 58.15 59.82 61.07 62.89 63.39 64.16 64.53 64.22 63.12 62.91 63.47 64.11 64.28 64.42 64.08 64.72 64.76 64.86 64.19 64.01 63.99 63.54 62.94 63.10 63.06 62.99 62.50 62.13 61.10 60.14 59.22 59.00 58.96
42.45 42.56 44.42 44.32 40.88 41.53 42.70 44.11 46.99 48.94 45.53 46.12 46.70 50.74 54.28 56.06 56.74 58.11 59.48 60.91 62.41 63.16 63.89 64.10 64.38 64.22 64.20 64.58 64.80 64.68 64.59 64.03 63.60 63.20 63.97 63.86 64.66 64.05 63.69 63.31 63.93 63.28 63.06 61.53 60.42 60.00 59.35 56.62 56.95
39.08 43.55 43.91 43.06 40.40 38.40 43.71 36.70 46.48 49.26 49.14 44.68 45.68 46.49 49.49 54.18 56.94 58.13 58.51 59.48 60.97 61.99 64.08 64.28 64.76 64.73 64.64 64.80 64.07 63.54 62.83 62.16 63.08 63.83 64.02 62.27 62.58 63.33 62.99 62.55 62.50 61.40 60.67 59.17 58.34 58.40 59.56 58.18 55.41
40.78 42.91 41.23 38.07 39.14 33.96 38.21 33.15 43.12 43.99 43.43 45.65 46.00 46.90 47.28 49.76 54.43 56.66 56.83 58.26 60.23 61.59 62.46 63.21 64.20 64.43 64.74 64.84 64.66 64.50 63.61 64.23 64.62 61.96 59.34 57.81 56.84 58.25 58.24 58.81 58.12 57.03 55.83 54.69 53.78 54.03 54.74 55.14 52.37
43.64 38.83 37.98 36.53 35.88 31.10 37.16 34.45 40.45 44.13 44.34 47.40 47.69 47.07 47.87 48.11 48.40 52.54 56.28 57.70 57.45 58.36 60.29 61.72 62.40 63.25 64.40 64.51 64.44 64.23 63.91 63.92 62.44 59.94 58.66 55.51 53.71 52.57 52.72 52.71 52.59 51.92 51.58 51.81 51.61 50.58 50.02 48.88 47.27
40.37 38.60 29.97 28.66 29.19 33.02 34.78 34.88 40.34 46.48 45.46 47.59 48.29 48.59 48.42 48.82 48.03 47.62 48.42 51.00 54.02 54.40 54.73 58.36 60.30 60.82 62.90 63.58 63.84 64.18 64.33 64.22 62.35 60.60 59.83 55.56 52.52 48.46 48.23 48.44 47.18 47.61 48.76 48.62 47.59 46.43 45.35 44.60 43.68
37.84 38.64 31.99 27.64 27.73 33.37 30.16 31.69 39.53 43.99 43.66 46.96 45.19 46.84 47.18 47.98 48.03 47.48 46.72 48.36 50.00 51.72 53.84 54.23 54.70 58.06 61.03 62.11 62.42 63.30 64.12 63.95 63.10 61.91 59.05 55.67 52.18 48.34 46.51 46.21 44.76 44.91 46.16 45.14 44.43 43.29 42.94 42.45 42.12
36.74 34.60 39.86 31.79 25.72 28.48 34.48 37.12 41.55 42.87 43.22 42.95 43.88 44.51 45.15 46.58 46.16 45.75 46.61 46.91 48.21 49.27 51.47 52.90 51.91 53.61 57.87 60.49 61.22 61.14 61.76 61.94 61.28 60.16 57.30 54.09 49.09 43.98 42.96 43.44 42.55 43.43 43.05 42.85 42.12 41.50 40.25 40.73 40.10
40.81 41.54 32.87 33.49 27.57 26.71 34.45 33.26 36.64 40.33 41.44 44.08 43.91 45.17 46.91 46.92 45.48 45.48 45.13 45.77 46.88 49.01 50.69 51.89 51.50 51.69 53.44 58.26 59.69 59.74 60.71 60.83 59.24 57.17 53.49 48.76 45.71 41.51 41.89 42.46 41.91 41.32 41.61 41.35 40.59 39.40 39.13 38.65 38.49
37.12 36.26 36.73 36.72 33.53 29.56 28.73 35.41 42.01 42.25 43.36 42.42 43.15 43.90 44.29 45.57 46.58 47.22 46.74 46.64 46.77 47.88 49.54 50.42 49.75 50.57 51.28 52.48 57.81 58.45 56.37 55.53 52.44 50.48 47.84 45.61 43.89 40.48 40.29 40.93 40.10 39.61 39.64 39.67 38.68 38.09 37.78 37.49 36.39
40.70 38.04 37.51 33.52 29.77 32.80 29.59 33.77 41.02 41.51 41.04 40.84 42.69 43.28 44.80 45.38 45.84 46.11 45.87 45.91 45.94 46.51 48.08 48.06 48.46 48.70 50.27 51.30 53.66 54.54 52.04 47.40 46.99 44.93 42.89 41.50 39.90 40.01 38.16 39.11 38.37 38.25 38.21 38.08 37.28 35.99 36.27 35.96 35.42
MSLP
1016.72 1016.27 1015.76 1015.29 1015.53 1014.91 1014.86 1015.46 1015.89 1016.14 1016.61 1017.34 1017.54 1017.45 1017.54 1018.51 1018.90 1019.92 1020.96 1021.10 1020.99 1021.33 1021.81 1022.13 1022.35 1022.46 1022.65 1022.65 1022.64 1022.62 1022.72 1022.64 1022.80 1022.81 1022.81 1022.83 1022.78 1022.85 1023.00 1023.02 1023.10 1023.25 1023.27 1023.28 1023.31 1023.43 1023.53 1023.60 1023.60
1016.42 1015.86 1015.49 1015.28 1015.14 1014.65 1014.73 1015.63 1015.93 1016.39 1017.24 1017.63 1017.99 1018.17 1018.30 1019.10 1020.26 1020.75 1020.89 1021.22 1021.14 1021.47 1021.76 1022.23 1022.78 1022.79 1022.93 1023.06 1023.05 1022.98 1022.95 1022.93 1023.06 1023.06 1023.14 1023.17 1023.17 1023.20 1023.27 1023.40 1023.49 1023.52 1023.63 1023.75 1023.80 1023.92 1024.06 1024.08 1024.06
1016.51 1015.88 1015.24 1015.23 1015.31 1014.87 1015.02 1015.70 1016.16 1017.19 1017.73 1017.66 1018.03 1018.69 1018.98 1019.78 1020.58 1020.78 1020.92 1021.24 1021.39 1021.73 1021.95 1022.65 1022.88 1023.16 1023.35 1023.30 1023.33 1023.31 1023.28 1023.27 1023.35 1023.42 1023.50 1023.62 1023.58 1023.65 1023.82 1023.77 1023.90 1024.02 1024.07 1024.19 1024.23 1024.38 1024.50 1024.51 1024.47
1016.28 1015.74 1016.27 1015.47 1015.30 1015.66 1015.75 1015.99 1016.47 1017.39 1017.88 1018.06 1018.18 1018.76 1019.84 1020.45 1020.81 1021.04 1021.22 1021.50 1021.46 1021.88 1022.26 1023.06 1023.22 1023.31 1023.57 1023.58 1023.53 1023.57 1023.60 1023.67 1023.78 1023.72 1023.83 1024.01 1024.06 1024.16 1024.26 1024.33 1024.45 1024.47 1024.65 1024.69 1024.66 1024.70 1024.79 1024.82 1024.79
1016.10 1015.59 1015.53 1015.65 1015.70 1016.06 1016.26 1016.50 1016.67 1017.02 1017.41 1017.90 1018.38 1018.96 1020.05 1020.89 1021.00 1021.36 1021.47 1021.46 1021.87 1022.11 1022.46 1023.11 1023.43 1023.61 1023.87 1023.99 1023.86 1023.82 1023.98 1024.06 1024.08 1024.13 1024.21 1024.32 1024.46 1024.57 1024.70 1024.79 1024.83 1024.96 1025.00 1025.02 1024.99 1025.14 1025.17 1025.18 1025.16
1015.61 1015.89 1015.53 1015.48 1015.76 1016.27 1016.54 1016.86 1016.80 1017.04 1017.57 1018.22 1018.44 1018.92 1020.27 1021.17 1021.49 1021.47 1021.46 1021.70 1022.15 1022.32 1022.57 1023.27 1023.72 1023.95 1024.11 1024.24 1024.25 1024.22 1024.33 1024.45 1024.46 1024.45 1024.51 1024.66 1024.83 1024.95 1025.06 1025.13 1025.25 1025.34 1025.37 1025.43 1025.52 1025.59 1025.57 1025.54 1025.53
1015.56 1015.77 1015.51 1015.77 1016.01 1016.33 1016.56 1017.18 1016.95 1017.18 1017.57 1018.05 1018.60 1018.93 1020.67 1021.47 1021.70 1021.75 1021.84 1022.08 1022.63 1022.93 1022.68 1023.16 1023.57 1024.06 1024.37 1024.49 1024.64 1024.66 1024.69 1024.88 1024.86 1024.90 1024.99 1025.21 1025.34 1025.45 1025.53 1025.59 1025.61 1025.68 1025.78 1025.86 1025.90 1025.93 1025.93 1025.90 1025.92
1016.40 1016.03 1016.15 1016.07 1015.97 1016.30 1016.91 1017.20 1017.37 1017.52 1017.94 1018.79 1018.88 1018.90 1020.13 1021.12 1021.88 1022.17 1022.56 1022.77 1023.24 1023.28 1023.07 1023.11 1023.47 1023.70 1024.14 1024.64 1025.01 1025.14 1025.19 1025.21 1025.21 1025.38 1025.61 1025.74 1025.91 1025.99 1025.98 1025.91 1025.97 1026.07 1026.15 1026.22 1026.29 1026.33 1026.35 1026.31 1026.27
1016.72 1016.50 1016.18 1016.07 1016.46 1016.47 1017.27 1017.22 1017.80 1018.24 1018.31 1018.83 1019.13 1019.28 1019.79 1021.01 1021.84 1022.36 1022.92 1023.21 1023.49 1023.54 1023.31 1023.24 1023.47 1023.60 1024.09 1024.54 1025.28 1025.55 1025.60 1025.60 1025.57 1025.66 1025.83 1025.77 1025.67 1025.79 1025.91 1026.35 1026.35 1026.41 1026.45 1026.49 1026.50 1026.50 1026.52 1026.46 1026.42
1016.36 1016.48 1016.47 1016.74 1016.95 1017.18 1017.51 1017.47 1017.58 1017.75 1018.15 1018.46 1019.02 1019.94 1020.24 1021.41 1021.69 1022.09 1022.58 1022.98 1023.58 1023.73 1023.58 1023.31 1023.46 1023.46 1024.11 1024.68 1025.15 1025.34 1025.73 1025.50 1025.63 1025.64 1025.69 1025.75 1025.93 1026.11 1026.27 1026.62 1026.72 1026.74 1026.70 1026.73 1026.68 1026.66 1026.52 1026.05 1025.72
1016.71 1016.47 1017.13 1017.36 1017.25 1017.56 1017.66 1017.80 1017.72 1017.30 1017.39 1017.29 1017.86 1019.36 1020.56 1021.25 1021.58 1021.94 1022.35 1022.69 1023.18 1023.71 1023.82 1023.52 1023.36 1023.62 1023.94 1024.60 1025.02 1025.30 1025.54 1025.72 1025.86 1025.97 1025.97 1025.99 1026.10 1026.29 1026.27 1026.38 1026.43 1026.43 1026.71 1026.34 1026.39 1026.24 1026.13 1026.13 1025.90
1017.26 1017.20 1017.20 1017.55 1017.76 1017.56 1017.89 1018.13 1017.59 1017.14 1016.56 1017.48 1017.74 1018.98 1020.25 1020.85 1021.18 1021.27 1021.94 1022.38 1022.91 1023.76 1023.86 1023.75 1023.46 1023.66 1024.01 1024.44 1024.79 1025.16 1025.44 1025.79 1025.91 1026.07 1026.23 1026.19 1026.05 1026.21 1026.28 1026.29 1026.51 1026.53 1026.46 1026.40 1026.33 1026.19 1026.23 1026.09 1026.04
1017.43 1017.55 1017.56 1017.74 1017.71 1018.06 1018.28 1018.01 1017.78 1017.04 1017.37 1017.75 1018.10 1019.18 1020.02 1020.52 1020.93 1021.12 1021.70 1022.33 1022.81 1023.25 1023.80 1023.99 1023.89 1023.57 1023.98 1024.54 1024.84 1025.11 1025.36 1025.51 1025.69 1025.98 1026.22 1026.23 1026.21 1026.28 1026.27 1026.29 1026.32 1026.41 1026.45 1026.35 1026.30 1026.24 1026.12 1026.04 1025.97
1017.82 1017.62 1017.85 1017.95 1017.94 1018.26 1018.19 1018.06 1018.12 1016.78 1017.36 1017.89 1018.43 1018.92 1019.86 1020.14 1020.40 1021.12 1021.27 1021.75 1022.58 1022.82 1023.15 1023.91 1024.11 1023.82 1023.97 1024.22 1024.81 1025.13 1025.30 1025.47 1025.68 1025.77 1025.97 1026.21 1026.12 1026.22 1026.23 1026.27 1026.28 1026.28 1026.30 1026.28 1026.30 1026.26 1026.11 1025.96 1025.92
1018.18 1017.90 1017.93 1018.09 1018.21 1018.27 1018.12 1017.81 1017.40 1017.20 1017.58 1017.73 1018.14 1018.78 1019.56 1019.99 1020.38 1020.61 1020.82 1021.01 1021.73 1022.19 1022.71 1023.24 1023.85 1024.12 1024.08 1024.22 1024.45 1024.78 1025.24 1025.49 1025.43 1025.66 1025.97 1026.10 1026.21 1026.18 1026.18 1026.13 1026.18 1026.21 1026.34 1026.43 1026.34 1026.21 1026.09 1025.79 1025.73
1018.57 1018.42 1018.18 1017.64 1018.08 1018.39 1017.94 1017.04 1016.75 1017.17 1017.54 1017.22 1017.76 1018.21 1019.22 1019.62 1019.89 1020.27 1020.52 1020.82 1021.18 1021.67 1022.20 1022.71 1023.16 1023.53 1023.94 1024.17 1024.33 1024.47 1024.85 1025.14 1025.38 1025.53 1025.70 1025.99 1026.21 1026.22 1026.12 1026.02 1026.01 1026.21 1026.43 1026.39 1026.26 1026.21 1026.25 1025.73 1025.61
1018.77 1018.14 1018.13 1017.92 1017.93 1018.08 1017.73 1016.78 1016.89 1017.11 1017.41 1016.94 1017.51 1017.77 1018.45 1019.11 1019.69 1020.02 1020.21 1020.35 1020.63 1021.09 1021.65 1022.28 1022.79 1023.06 1023.39 1024.00 1024.41 1024.48 1024.61 1024.78 1024.94 1025.08 1025.33 1025.66 1026.06 1026.17 1026.16 1026.07 1026.19 1026.52 1026.38 1026.37 1026.50 1026.56 1026.55 1025.95 1025.56
1018.73 1018.48 1018.17 1017.80 1017.99 1018.12 1017.45 1016.64 1016.40 1016.74 1017.11 1017.07 1017.11 1017.45 1017.76 1018.26 1018.69 1019.19 1019.47 1019.80 1020.19 1020.67 1021.06 1021.89 1022.38 1022.76 1023.07 1023.55 1024.03 1024.28 1024.44 1024.50 1024.57 1024.71 1025.22 1025.40 1025.67 1025.92 1026.06 1026.13 1026.21 1026.46 1026.44 1026.40 1026.70 1026.71 1026.52 1026.20 1025.85
1018.44 1018.43 1017.77 1017.92 1018.23 1018.08 1017.20 1016.42 1015.89 1016.12 1016.72 1016.66 1016.80 1016.90 1017.20 1017.33 1017.84 1018.33 1018.98 1019.49 1019.54 1020.29 1020.52 1021.05 1021.71 1022.17 1022.68 1023.10 1023.50 1023.77 1023.95 1024.27 1024.51 1024.80 1024.92 1025.16 1025.32 1025.55 1025.79 1025.88 1026.03 1026.14 1026.14 1026.20 1026.41 1026.54 1026.39 1026.08 1026.09
1018.63 1018.47 1018.05 1018.15 1018.56 1018.58 1017.35 1016.12 1015.75 1015.68 1015.55 1015.60 1015.87 1016.49 1016.57 1017.01 1017.32 1017.64 1018.25 1018.80 1019.17 1019.49 1020.08 1020.26 1020.83 1021.30 1021.90 1022.13 1022.57 1022.95 1023.23 1023.55 1023.63 1024.06 1024.36 1024.54 1024.81 1025.13 1025.41 1025.55 1025.60 1025.70 1025.85 1026.04 1026.26 1026.42 1026.36 1026.54 1026.47
1019.05 1018.92 1018.73 1018.79 1018.98 1018.80 1017.97 1015.62 1014.66 1014.58 1015.05 1015.26 1015.50 1015.58 1016.18 1016.26 1016.36 1016.93 1017.40 1017.86 1018.38 1018.64 1019.25 1019.90 1020.12 1020.54 1021.04 1021.37 1021.83 1022.39 1022.81 1023.39 1023.52 1023.77 1023.99 1024.23 1024.32 1024.62 1024.85 1025.00 1025.00 1025.27 1025.28 1025.80 1026.25 1026.31 1026.28 1026.49 1026.79
1019.47 1019.61 1019.63 1019.79 1019.95 1019.37 1018.62 1015.74 1013.43 1013.28 1013.49 1014.21 1014.42 1014.70 1015.05 1015.81 1015.87 1016.04 1016.51 1016.91 1017.24 1017.83 1018.51 1019.19 1019.62 1019.96 1020.22 1020.68 1021.06 1021.46 1021.77 1022.07 1022.38 1022.63 1022.96 1023.79 1024.09 1024.18 1024.51 1024.74 1024.94 1025.27 1025.59 1025.89 1026.24 1026.28 1026.25 1026.53 1026.76
1019.84 1020.38 1020.83 1021.35 1020.82 1020.59 1019.21 1018.07 1013.22 1013.12 1012.82 1012.21 1012.73 1013.39 1013.79 1014.51 1015.14 1015.34 1015.57 1015.73 1016.10 1017.02 1017.56 1018.31 1018.91 1019.26 1019.58 1019.81 1020.13 1020.50 1020.78 1021.19 1021.68 1022.42 1022.95 1023.70 1024.17 1024.43 1024.53 1024.91 1025.23 1025.61 1025.94 1026.12 1026.37 1026.54 1026.45 1026.70 1026.88
1020.04 1021.14 1022.38 1022.82 1022.66 1021.16 1019.21 1018.12 1013.03 1011.86 1011.29 1011.28 1011.52 1011.98 1012.51 1012.96 1013.84 1014.53 1015.28 1015.51 1015.71 1016.32 1016.86 1017.33 1017.73 1018.29 1018.71 1019.22 1019.49 1019.65 1020.08 1020.46 1021.27 1022.24 1022.86 1023.55 1024.19 1024.58 1024.83 1024.95 1025.34 1025.77 1026.14 1026.25 1026.34 1026.68 1026.93 1027.16 1027.42
1019.83 1021.11 1023.04 1023.59 1022.64 1019.33 1018.69 1017.34 1012.61 1010.96 1011.36 1010.74 1010.94 1010.92 1011.31 1011.90 1012.69 1013.37 1014.40 1015.19 1015.14 1015.50 1016.12 1016.69 1017.08 1017.36 1017.82 1018.47 1018.95 1019.09 1019.31 1019.67 1020.37 1020.87 1021.57 1022.94 1023.89 1024.55 1024.76 1024.93 1025.29 1025.85 1026.06 1026.28 1026.78 1026.99 1027.39 1027.57 1027.86
1020.37 1020.44 1021.30 1021.07 1020.74 1019.23 1018.92 1015.23 1011.94 1011.59 1011.42 1011.06 1011.23 1011.33 1011.42 1011.46 1012.03 1012.71 1013.25 1014.10 1014.86 1015.12 1015.43 1016.03 1016.63 1016.86 1017.10 1017.51 1017.95 1018.56 1018.84 1019.04 1019.60 1020.25 1020.70 1021.71 1022.78 1023.68 1024.34 1024.77 1025.21 1025.70 1025.93 1026.35 1026.82 1027.41 1027.72 1028.11 1028.42
1020.38 1020.35 1020.44 1020.77 1021.08 1019.57 1016.64 1014.00 1012.38 1011.50 1010.96 1010.81 1010.92 1011.47 1011.33 1011.45 1012.28 1012.92 1013.16 1013.45 1014.27 1014.99 1015.38 1015.63 1016.13 1016.54 1016.75 1017.09 1017.51 1017.91 1018.49 1018.81 1019.22 1019.94 1020.68 1021.43 1022.32 1023.44 1024.33 1024.58 1025.00 1025.72 1025.96 1026.56 1026.94 1027.40 1028.03 1028.34 1028.83
1018.35 1019.32 1020.26 1020.35 1019.66 1017.96 1014.84 1013.48 1011.61 1011.21 1010.90 1010.55 1010.51 1010.66 1010.74 1011.77 1012.33 1012.94 1013.47 1013.48 1013.55 1014.28 1014.95 1015.42 1015.53 1015.81 1016.37 1016.73 1017.25 1017.63 1018.15 1018.48 1018.97 1019.81 1020.51 1021.33 1022.19 1023.09 1023.91 1024.31 1024.78 1025.39 1026.03 1026.63 1027.03 1027.72 1028.30 1028.70 1029.10
1018.05 1018.30 1018.98 1019.04 1018.78 1017.12 1014.95 1011.96 1011.05 1010.56 1010.71 1010.77 1010.89 1011.19 1011.59 1011.90 1012.18 1012.65 1013.02 1013.48 1013.26 1013.41 1014.06 1014.63 1015.27 1015.76 1016.13 1016.56 1016.83 1017.43 1018.07 1018.49 1018.88 1019.53 1020.28 1020.94 1021.67 1023.06 1023.53 1024.09 1024.54 1025.27 1026.02 1026.75 1027.06 1027.77 1028.27 1028.87 1029.30
1016.99 1016.87 1017.36 1017.17 1017.96 1017.24 1015.93 1011.67 1010.74 1010.69 1010.82 1010.97 1011.25 1011.47 1011.99 1012.26 1012.37 1012.71 1013.04 1013.52 1014.22 1013.86 1013.84 1014.35 1014.84 1015.36 1015.84 1016.37 1016.41 1016.99 1017.91 1018.83 1019.31 1019.72 1020.38 1021.00 1021.71 1022.37 1023.03 1024.22 1024.37 1025.09 1026.00 1026.75 1026.92 1027.62 1028.28 1028.96 1029.28
Wind_Speed
6 3 1 0 3 3 2 3 0 5 5 3 3 1 1 5 3 4 7 6 15 12 12 12 10 11 11 10 12 12 12 15 15 16 17 14 15 19 19 18 18 18 17 17 17 18 18 18 17
4 2 1 1 3 4 3 2 5 4 5 9 6 4 2 4 3 7 10 12 14 13 12 12 9 11 11 10 11 12 12 14 15 16 15 14 17 17 18 17 16 16 16 16 16 17 17 17 17
2 3 1 1 1 3 0 4 5 7 6 4 4 3 2 3 3 11 9 14 14 13 12 13 11 12 10 10 10 13 12 13 13 16 17 15 17 18 17 15 17 16 15 15 15 16 17 17 16
2 2 3 3 2 2 1 2 6 11 3 2 4 6 4 1 7 5 15 13 13 12 13 13 11 13 11 9 14 15 13 13 13 15 18 17 17 17 15 15 14 14 14 14 14 15 15 15 16
1 1 2 2 2 1 3 2 10 10 5 6 3 5 3 5 3 12 14 12 12 13 13 14 11 12 10 9 12 14 13 13 13 14 17 17 16 15 14 14 14 14 14 14 14 15 14 14 14
3 2 4 7 3 1 2 5 9 7 4 6 4 7 6 2 8 14 13 12 11 11 12 13 11 9 9 9 10 13 13 12 12 13 17 17 15 14 14 14 13 13 13 13 14 13 13 13 13
3 3 5 2 2 3 3 7 8 6 6 5 5 6 4 5 9 13 12 11 10 9 11 12 12 11 9 8 9 9 11 12 12 12 15 15 13 12 13 12 13 13 12 12 12 11 12 13 13
3 2 4 4 4 2 5 8 1 6 4 5 2 4 6 10 12 11 10 9 8 9 9 11 11 11 10 9 7 9 11 11 12 12 13 12 12 11 9 9 11 11 11 11 10 10 10 10 10
2 4 7 5 4 2 7 8 3 2 6 3 5 1 2 18 15 12 10 7 7 7 10 11 11 11 9 8 7 7 8 9 12 12 9 7 7 8 9 10 10 10 10 10 10 9 7 4 7
6 9 10 2 1 3 2 6 8 7 7 6 7 3 11 16 16 16 14 11 10 10 11 11 11 11 10 7 8 6 7 6 6 7 7 5 6 6 8 7 9 9 8 8 7 6 2 1 4
4 14 6 4 7 3 2 4 5 6 8 9 13 13 16 15 16 16 14 13 13 10 9 12 12 11 11 8 6 4 3 4 4 6 5 6 5 5 3 3 3 4 2 3 3 3 3 4 3
9 6 8 6 3 4 3 1 5 11 4 4 5 16 19 18 19 18 16 14 13 9 11 11 12 10 9 7 6 6 5 4 4 4 5 4 3 4 3 3 3 2 2 3 2 2 3 3 3
9 7 4 5 7 3 0 6 8 11 5 1 10 17 19 18 19 15 14 13 12 13 10 9 11 11 9 7 5 6 5 5 6 5 4 3 3 3 3 3 2 1 1 1 1 1 1 2 3
4 6 4 3 3 1 2 4 1 5 8 7 13 16 17 20 20 16 15 15 14 13 14 11 11 10 10 8 7 5 5 6 5 5 4 4 3 3 2 2 1 1 1 0 1 2 3 3 3
4 6 6 1 1 2 2 5 10 6 8 10 14 14 15 17 18 18 16 16 16 14 14 14 12 10 9 9 9 7 5 5 5 5 6 6 4 4 2 2 2 1 1 2 2 2 3 4 4
7 5 7 10 5 2 5 13 13 7 10 14 14 13 15 18 20 18 17 16 16 14 15 14 12 13 11 9 7 6 6 6 5 5 5 6 5 4 4 2 2 2 2 2 2 3 4 3 4
5 7 15 9 8 6 10 10 4 4 9 12 12 14 15 16 16 17 17 16 16 15 15 14 13 14 14 11 7 7 7 6 6 6 6 8 7 7 5 3 2 2 3 3 1 2 3 4 5
7 12 9 15 4 6 11 14 13 6 9 13 12 13 15 16 18 18 18 17 15 15 14 14 12 13 13 9 8 6 6 7 7 7 6 8 6 7 5 4 4 4 4 3 2 2 2 3 4
11 13 14 7 2 5 15 16 15 9 7 12 13 14 15 17 16 17 17 16 16 15 15 16 15 15 11 9 9 8 9 8 7 5 8 8 7 8 7 4 5 6 5 3 2 1 3 0 4
11 12 12 6 5 5 9 16 13 12 10 13 14 15 17 15 16 17 17 17 17 17 17 17 17 17 14 11 10 8 9 8 9 7 8 9 10 8 7 7 6 7 4 5 4 3 1 2 4
5 10 10 7 3 4 9 24 22 18 11 11 12 14 14 18 19 17 19 20 18 19 18 17 18 17 15 16 10 8 5 2 5 5 7 7 10 8 8 7 6 5 4 3 3 3 4 2 1
7 4 3 6 3 9 2 10 17 15 23 14 16 15 16 18 18 17 19 19 20 19 18 18 18 18 16 17 13 17 11 10 9 9 7 6 4 6 5 3 3 3 2 5 3 3 3 3 3
3 10 5 4 3 5 8 7 12 3 16 21 17 17 17 18 19 20 18 18 19 17 17 17 18 18 18 17 17 14 15 11 8 4 9 7 5 4 5 5 5 5 3 4 5 4 4 2 3
19 14 14 9 3 7 10 10 10 16 20 17 14 18 19 20 18 19 16 14 13 13 15 16 20 20 19 17 19 19 17 14 10 9 9 7 6 5 5 7 6 5 5 6 5 5 5 5 5
7 13 3 3 5 8 3 12 17 14 10 12 16 18 19 19 17 16 17 16 16 17 16 15 19 20 19 18 18 19 19 17 17 15 12 12 8 4 7 7 7 5 6 7 6 6 6 5 5
9 4 5 6 6 2 1 12 6 8 9 11 10 13 9 11 13 14 16 15 14 14 15 16 18 18 19 19 19 17 18 12 13 14 11 10 9 8 9 9 8 8 9 8 8 6 5 6 5
5 6 2 3 3 2 6 8 12 13 12 9 14 12 12 12 10 13 10 12 12 12 15 16 15 16 17 18 15 14 12 15 12 14 12 10 10 8 9 11 10 10 10 9 8 6 7 6 6
12 15 5 2 6 7 9 8 10 5 11 13 11 13 14 6 6 8 10 11 11 12 13 15 14 16 14 15 13 10 11 12 10 12 13 12 10 11 12 12 12 11 10 10 8 7 7 7 5
11 10 3 3 4 5 5 8 6 9 8 5 4 6 5 6 8 8 9 10 11 12 14 13 12 13 13 12 13 9 7 8 10 10 11 11 14 11 12 13 13 12 11 9 8 8 8 7 7
15 13 10 7 7 5 2 12 4 5 2 0 5 4 4 5 6 6 6 7 9 10 11 12 11 12 11 10 12 11 9 7 7 8 10 11 11 12 13 12 13 12 11 10 10 9 8 8 8
Wind_Direction
285 297 196 155 240 248 158 145 10 157 155 84 87 244 47 17 338 21 142 130 139 140 135 141 124 118 113 106 103 103 111 108 106 105 102 98 93 92 93 90 83 83 78 79 80 75 71 71 67
304 266 149 107 260 239 133 130 193 137 105 123 115 125 140 82 63 118 138 151 144 141 143 134 119 120 119 124 121 111 106 104 110 106 103 103 94 91 87 88 88 81 78 80 80 76 74 71 68
270 332 296 76 231 264 66 172 134 123 126 144 127 28 53 82 110 145 125 153 147 142 137 126 129 123 126 121 128 119 112 110 111 121 107 97 91 85 77 77 77 79 81 78 80 79 75 71 68
272 151 119 252 220 139 320 115 151 152 148 134 133 111 113 2 140 147 139 160 154 143 138 136 133 126 125 122 137 124 117 116 104 110 109 98 89 90 91 87 88 87 82 79 84 85 80 75 71
60 209 160 234 218 178 243 249 180 171 136 146 176 127 72 137 145 149 147 155 151 147 139 143 132 128 122 112 110 125 117 115 116 102 106 102 99 98 99 97 95 91 86 85 91 84 80 74 72
136 287 194 222 215 199 239 181 175 179 147 134 165 135 132 117 155 159 153 151 148 150 146 137 129 123 122 113 105 105 115 115 107 101 108 103 103 103 101 98 94 89 85 85 86 83 75 69 70
146 201 216 211 239 232 182 163 182 181 153 159 130 145 114 168 156 159 156 151 146 157 150 145 140 128 108 105 109 106 99 91 89 92 99 96 93 92 93 91 92 88 85 85 88 83 73 68 67
116 173 183 216 225 236 160 173 233 199 142 119 199 187 169 174 160 149 150 153 153 157 163 151 145 140 143 136 93 99 94 98 97 89 83 87 85 85 86 107 82 89 87 84 81 75 67 64 61
131 204 218 203 193 126 157 189 140 93 138 182 163 194 88 142 155 150 150 148 167 166 168 164 152 141 138 139 117 106 94 95 103 103 103 129 110 108 95 67 78 88 90 90 82 76 72 84 84
204 215 210 110 41 26 195 238 169 177 169 189 180 127 148 151 158 163 173 170 182 180 174 169 161 143 140 141 152 134 138 128 116 127 128 113 113 90 91 86 81 82 83 88 86 76 103 261 55
159 216 177 129 93 48 358 242 188 206 206 212 202 164 166 164 168 172 181 179 187 186 182 177 164 155 150 153 155 154 138 132 131 132 133 125 130 138 118 114 111 105 115 101 119 114 59 51 29
191 202 190 144 67 70 338 14 232 220 242 351 191 163 166 175 180 179 179 188 192 184 193 187 171 166 157 153 166 157 157 155 154 145 138 149 141 138 130 108 107 104 75 88 63 61 42 36 27
222 173 180 105 74 75 4 269 272 247 228 50 153 161 176 179 185 184 181 193 195 196 184 195 182 174 160 168 166 163 164 174 155 155 154 167 140 138 144 130 133 114 120 75 76 34 0 348 347
170 164 145 116 73 95 355 343 259 263 177 159 170 175 185 187 184 182 191 187 195 194 188 183 191 190 170 168 173 179 176 164 170 162 165 166 147 150 153 158 155 182 193 122 353 352 329 326 321
133 189 216 122 126 87 136 264 232 252 194 187 189 182 191 197 189 193 195 188 192 193 188 186 183 193 189 185 176 176 181 188 177 175 176 175 171 163 201 195 213 218 213 261 263 284 300 304 339
201 246 212 218 179 138 214 261 270 195 209 204 201 188 193 199 199 196 197 200 194 191 192 188 182 184 196 207 194 182 181 186 190 186 179 189 179 197 203 221 221 210 246 273 282 334 310 304 332
202 203 215 218 218 171 211 252 203 182 225 226 209 201 198 195 204 204 205 201 194 194 191 194 193 189 189 197 205 198 194 200 195 192 195 186 189 198 211 218 212 187 252 255 298 272 299 312 329
167 193 222 223 176 214 221 243 259 202 203 244 225 216 207 207 205 204 201 203 197 196 192 196 194 199 194 187 196 199 198 204 208 204 201 190 195 200 209 219 209 206 208 222 219 266 259 314 335
178 210 210 186 117 228 239 246 247 245 217 226 236 227 220 212 208 203 205 204 198 201 193 196 195 199 191 190 190 200 203 203 207 207 202 192 198 203 207 213 206 209 227 212 192 238 294 305 343
189 207 216 226 217 264 262 265 253 250 237 231 235 234 227 220 210 203 204 206 205 203 206 199 201 196 197 194 195 202 204 212 206 200 200 201 205 202 205 214 217 210 214 193 178 217 195 40 1
197 202 216 237 153 251 279 274 256 249 243 236 223 233 238 222 218 206 202 206 207 210 207 210 207 203 199 200 196 202 196 215 197 193 206 204 210 202 205 210 218 200 198 165 178 203 222 216 71
175 195 209 214 210 253 288 283 264 251 238 220 227 214 222 230 226 215 210 207 207 212 212 212 211 208 204 202 197 197 201 197 207 199 197 183 185 197 192 191 174 142 154 152 161 209 193 194 185
146 137 116 43 124 26 220 269 264 280 235 228 222 218 216 221 228 221 210 207 206 204 207 209 213 213 206 204 203 204 207 213 208 176 157 160 158 169 150 151 149 150 145 140 158 156 151 162 153
127 77 59 47 54 247 207 220 234 248 240 239 220 217 220 212 214 228 228 214 209 201 203 203 209 215 211 210 209 210 212 211 189 179 178 170 165 156 161 148 140 142 147 154 141 124 121 119 115
104 127 113 174 203 249 59 224 254 257 271 258 242 231 218 216 214 210 211 215 213 201 202 205 210 215 210 211 216 216 215 209 205 188 181 171 170 178 178 158 141 145 153 137 133 126 123 127 126
152 135 175 198 196 257 117 236 244 262 307 272 281 269 267 235 217 213 208 216 225 215 202 199 206 214 209 208 214 217 218 214 209 202 177 178 176 164 156 159 145 152 150 137 132 125 121 119 118
164 188 151 122 61 249 223 266 259 251 261 231 239 259 266 242 229 232 226 214 219 219 215 206 203 212 213 213 213 211 214 213 200 196 186 172 154 147 153 154 145 155 142 143 140 137 130 127 123
178 152 136 224 209 240 233 264 254 303 244 247 241 242 255 273 260 247 240 224 207 210 210 209 203 206 208 210 211 209 207 201 186 180 176 168 153 151 155 159 154 149 146 148 143 134 137 134 132
148 176 132 155 222 235 280 260 207 242 282 300 326 293 310 302 280 270 258 248 217 201 202 199 195 199 199 200 205 200 185 180 167 170 164 163 155 155 152 165 154 148 151 153 145 144 146 146 142
201 188 174 183 182 246 350 261 164 227 205 214 325 0 323 306 303 286 271 262 252 224 203 194 187 193 203 201 202 199 173 153 157 156 159 151 159 158 151 169 149 147 153 156 151 149 153 159 157